Location: Blanot
(47.1713°N, 4.2340°E)
Time: 10:55:38
(UTC+00:00)

Cosmos 468 Rocket - Pass Details

Date: 14 July 2020
Orbit: 743 x 780 km, 74.0° (Epoch: 05 August)

Event Time Altitude Azimuth Distance (km) Brightness Sun altitude
Rises 02:33:08 0° 337° (NNW) 3,266 7.7 -11.9°
Reaches altitude 10° 02:35:32 10° 337° (NNW) 2,338 6.9 -11.7°
Maximum altitude 02:40:52 88° 251° (WSW) 788 4.0 -11.1°
Drops below altitude 10° 02:46:11 10° 161° (SSE) 2,328 6.2 -10.5°
Sets 02:48:33 0° 161° (SSE) 3,251 7.0 -10.2°
